www.pogodaiklimat.ru

Погода и климат >> Архив погоды >> Россия >> Якутия >> Ытык-Кюёль


ПОГОДА в Ытык-Кюёле

  • Прогноз погоды в Ытык-Кюёле
  • Монитор погоды в Ытык-Кюёле

АРХИВ ПОГОДЫ в Ытык-Кюёле

Время (UTC), дата Ветер
(напр.,м/с)
 
Видим.   Явления Облачность Т
(С)
Тd
(С)
f
(%)
Тe
(С)
Тes
(С)
Комфортность P
(гПа)
Po
(гПа)
Тmin
(С)
Tmax
(С)
R
(мм)
R24
(мм)
S
(см)
15 15.08 штиль 0 20 км {дождь, метель} 10/0
[As op]
+15.1 +14.9 99 +15 +15 1014.0 996.0
18 15.08 штиль 0 20 км 10/0
[Ac As Ci fib]
+12.8 +12.8 100 +12 +12 1015.5 997.3
21 15.08 штиль 0 50 км 10/0
[Ac As Ci fib]
+12.2 +11.4 95 +12 +12 1015.5 997.3
00 16.08 В 1 50 км 10/0
[Ac As Ci fib]
+19.6 +11.4 59 +22 +26 комфорт 1014.9 997.3 +10.6 0.5
03 16.08 В 2 20 км дождь 10/0
[As op]
+16.0 +16.0 100
06 16.08 В 2 50 км {дождь} 10/0
[As op]
+17.3 +13.4 78 +18 +18 1016.6 998.7
09 16.08 штиль 0 50 км 10/0
[Ac As Ci fib]
+18.3 +12.3 68 +19 +19 1016.6 998.7
12 16.08 штиль 0 20 км 10/0
[As op]
+16.8 +14.2 85 +17 +17 1016.0 999.8 +20.0 0.6
15 16.08 штиль 0 20 км 10/5 600 м
[Sc Ac As]
+16.7 +13.2 80 +17 +17 1016.6 998.7
18 16.08 штиль 0 20 км 10/3 600 м
[Sc Ac As]
+16.0 +12.4 79 +16 +16 1016.3 998.3
21 16.08 штиль 0 50 км 10/0
[Ac As]
+15.2 +11.7 80 +15 +15 1016.8 998.8
00 17.08 штиль 0 50 км 10/0
[Ci sp]
+18.7 +12.5 67 +19 +25 1017.1 999.1 +15.0
03 17.08 Ю 2 50 км 10/0
[As op]
+21.9 +14.3 62 +25 +25 комфорт 1017.6 1000.0
06 17.08 Ю 3 50 км 10/0
[Ci fib]
+24.2 +12.5 48 +26 +26 жарко 1016.2 998.7
09 17.08 Ю 1 50 км 10/0
[Ci fib]
+23.6 +14.6 57 +26 +26 жарко 1016.2 998.7
12 17.08 ЮВ 1 20 км 10/0
[As op Ci fib]
+20.5 +16.4 77 +25 +25 комфорт 1016.3 998.5 +25.0
15 17.08 штиль 0 20 км 10/0
[As op Ci fib]
+14.2 +13.7 97 +14 +14 1018.1 1000.0
18 17.08 штиль 0 20 км 10/0
[As op]
+13.0 +13.0 100 +12 +12 1018.2 1000.0
21 17.08 штиль 0 50 км 10/0
[As op]
+12.3 +11.5 95 +12 +12 1017.7 999.4
00 18.08 штиль 0 50 км 10/0
[As op]
+14.5 +11.2 81 +14 +16 1016.6 998.5 +11.6
03 18.08 ЮВ 1 20 км дымка 10/0
[As op]
+20.4 +12.6 61 +24 +24 комфорт 1016.4 998.7
06 18.08 Ю 1 50 км 10/0
[As op]
+20.1 +12.1 60 +23 +23 комфорт 1016.4 998.7
09 18.08 Ю 1 50 км 10/0
[As op]
+17.4 +15.4 88 +18 +18 1016.6 998.7
12 18.08 штиль 0 20 км 10/0
[As op]
+15.4 +11.3 77 +15 +15 1017.1 999.0 +21.0
15 18.08 штиль 0 20 км 10/0
[As op]
+11.9 +11.7 99 +11 +11 1018.3 1000.0
18 18.08 штиль 0 20 км 8/0
[Ac und]
+9.4 +9.4 100 +8 +8 1018.5 1000.0
21 18.08 штиль 0 50 км 10/0
[Ac und]
+11.0 +9.7 92 +10 +10 1019.7 1001.3
00 19.08 Ю 1 50 км 10/0
[As op]
+15.0 +10.0 72 +16 +17 1018.9 1000.8 +9.1
03 19.08 Ю 3 50 км 6/0
[Ac As]
+17.0 +9.9 63 +17 +20 1019.3 1001.3
06 19.08 Ю 3 50 км 10 баллов +17.8 +6.3 47 +18 +18 1019.3 1001.3
09 19.08 ЮВ 3 50 км 7 баллов +17.6 +10.5 63 +18 +18 1019.3 1001.3
12 19.08 штиль 0 20 км 10/8 600 м
[Sc As op]
+15.2 +12.3 83 +15 +15 1019.2 1001.1 -19.1
15 19.08 Ю 3 20 км 10 баллов +15.4 +11.0 75
18 19.08 Ю 1 20 км 10/10 600 м
[Sc]
+14.6 +10.8 78 +15 +15 1018.9 1000.8
21 19.08 штиль 0 50 км 10/0
[Ac und]
+13.1 +11.3 89 1018.9
00 20.08 штиль 0 50 км 10/0
[Ac As]
+16.0 +10.8 71 +16 +18 1018.5 1000.4 +12.6
03 20.08 ЮВ 3 50 км 10/0
[Ac As]
+16.8 +7.4 54
06 20.08 В 1 50 км 10/6 600 м
[Sc As trans]
+18.0 +11.1 64 +19 +19 1019.2 1001.3
09 20.08 штиль 0 50 км 10/4 600 м
[Sc As trans]
+17.2 +11.2 68
12 20.08 штиль 0 20 км 10/0
[As op]
+15.0 +13.2 89 +15 +15 1019.6 1001.5 +18.3
15 20.08 штиль 0 20 км 10/0
[As op]
+14.8 +13.7 93 +14 +14 1019.8 1001.7
18 20.08 В 1 20 км 10/0
[Ac As]
+12.8 +11.5 92 +13 +13 1021.0 1002.7
21 20.08 штиль 0 50 км 10/0
[Ac As]
+13.9 +12.1 89 +13 +14 1020.1 1001.9
00 21.08 штиль 0 50 км 10/0
[Ac As Ci sp]
+17.0 +11.3 69 +17 +21 1019.8 1001.8 +12.7
03 21.08 ЮВ 2 50 км 10 баллов +19.2 +11.5 61 +21 +21 комфорт 1020.6 1002.7
06 21.08 ЮЗ 2 50 км 10/8 600 м
[Sc Ci fib]
+20.5 +12.2 59 +23 +23 комфорт 1019.1 1001.3
09 21.08 ЮЗ 2 50 км 10 баллов +19.0 +14.3 74 +21 +21 комфорт 1019.1 1001.3
12 21.08 штиль 0 20 км 10/0
[Ci fib]
+12.4 +12.0 97 +12 +12 1018.5 1000.2 +21.0
15 21.08 штиль 0 20 км 10/0
[Ci fib]
+7.2 +7.1 99 +6 +6 1019.9 1001.3
21 21.08 штиль 0 50 км 10/0
[Ci fib]
+5.2 +3.3 88 +4 +5 1018.7 1000.0
00 22.08 штиль 0 50 км 8/0
[Ac As Ci sp]
+15.4 +12.9 85 +15 +20 1014.5 996.5 +4.4
03 22.08 штиль 0 50 км 7 баллов +22.0 +14.9 64 +25 +29 комфорт 1017.6 1000.0
06 22.08 Ю 1 50 км 10 баллов +24.0 +14.1 54 +26 +26 жарко 1016.2 998.7
09 22.08 СЗ 1 50 км 6 баллов +23.4 +13.8 55 +27 +27 душно 1014.8 997.3
12 22.08 штиль 0 50 км 6/0
[Ci fib]
+14.2 +13.8 97 +14 +14 1015.2 997.1 +25.0

 

Местоположение метеостанции Ытык-Кюёль (Якутия, Россия): широта 62.37 долгота 133.50 высота над уровнем моря 152 м.

В архиве по умолчанию представлена погода в Ытык-Кюёле за последнюю неделю. Архивные данные за месяц целиком и за предыдущие месяцы, начиная с января 2011 года, Вы можете получить, выбрав интересующий диапазон дат из раскрывающегося списка и нажав кнопку "Ввод!".


*Определитесь, кто Вы:
робот инопланетянин человек

Внимание! Время в таблицах - всемирное. Для получения местного времени необходимо прибавить поправку, которая равна 9 ч.

Смотрите также архив погоды в соседних городах и на ближайших метеорологических станциях:

Погода в Чурапче (Якутия, Россия) (60 км)
Погода в Крест-Хальджае (Якутия, Россия) (68 км)
Погода в Охотском Перевозе (Якутия, Россия) (118 км)
Погода в Верхоянском Перевозе (Якутия, Россия) (130 км)
Погода в Теплом Ключе (Якутия, Россия) (175 км)
Погода в Амге (Якутия, Россия) (184 км)
Погода в Намцах (Якутия, Россия) (204 км)
Погода в Якутске (Якутия, Россия) (207 км)
Погода в Томпо (Якутия, Россия) (210 км)
Погода в Усть-Мае (Якутия, Россия) (230 км)

Пояснения к столбцам:

Ветер - указаны скорость ветра в м/с - средняя за 10 мин, порывы в срок и между сроками (в фигурных скобках) и направление, откуда дует ветер: С - северный, СВ - северо-восточный, В - восточный, ЮВ - юго-восточный, Ю - южный, ЮЗ - юго-западный, З - западный, СЗ - северо-западный.
Видимость - горизонтальная дальность видимости в метрах или километрах. При видимости от 1 до 10 км при отсутствии осадков обычно наблюдается дымка, при ухудшении видимости до 1 км и менее - туман. В сухую погоду видимость может ухудшаться дымом, пылью или мглою.
Явления - указаны атмосферные явления, наблюдавшиеся в срок или в последний час перед сроком; фигурными скобками обозначены явления, наблюдавшиеся между сроками (за 1-3 часа до срока); квадратными скобками обозначены град или гололедные отложения с указанием их диаметра в мм.
Облачность - указаны через наклонную черту общая и нижняя облачность в баллах и высота нижней границы облаков в метрах; квадратными скобками обозначены формы облаков: Ci - перистые, Cs - перисто-слоистые, Cc - перисто-кучевые, Ac - высококучевые, As - высокослоистые, Sc - слоисто-кучевые, Ns - слоисто-дождевые, Cu - кучевые, Cb - кучево-дождевые. Подробнее классификацию облаков см. в Атласе облаков (PDF).
T - Температура воздуха - температура, измеренная на высоте 2 м над землей.
Td - Температура точки росы - температура, при понижении до которой содержащийся в воздухе водяной пар достигнет насыщения.
f - Относительная влажность воздуха - влажноcть воздуха, измеренная на высоте 2 м над землей.
Te - Эффективная температура - температура, которую ощущает одетый по сезону человек в тени. Характеристика душности погоды. При расчете учитывается влияние влажности воздуха и скорости ветра на теплоощущения человека.
Tes - Эффективная температура на солнце - температура, которую ощущает человек, с поправкой на солнечный нагрев. Характеристика знойности погоды. Зависит от высоты солнца над горизонтом, облачности и скорости ветра. Ночью, в пасмурную погоду, а также при ветре 12 м/с и более поправка равна нулю.
P - Атмосферное давление - приведенное к уровню моря атмосферное давление.
Po - Атмосферное давление - измеренное на уровне метеостанции атмосферное давление.
Tmin - Минимальная температура - минимум температуры воздуха на высоте 2 м над землей.
Tmax - Максимальная температура - максимум температуры воздуха на высоте 2 м над землей.
R - Количество осадков - Количество выпавших осадков за период времени, мм. При наведении курсора мыши на число - период времени, за который выпало указанное количество осадков.
R24 - Количество осадков - Количество выпавших осадков за 24 часа, мм.
S - Снежный покров - Высота снежного покрова, см. При наведении курсора мыши на число - состояние снежного покрова и степень покрытия местности в баллах.